Regional Weather Roundup
Issued by NWS

Home | Current Version | Previous Version | Graphics & Text | Print | Product List | Glossary Off
Versions: 1 2 3 4 5 6 7 8 9 10 11 12 13 14 15 16 17 18 19 20 21 22 23 24 25 26 27 28 29 30 31 32 33 34 35 36 37 38 39 40 41 42 43 44 45 46 47 48 49 50

000
ASUS43 KTOP 091208
RWRKS

WEATHER ROUNDUP FOR KANSAS
NATIONAL WEATHER SERVICE GOODLAND KS
600 AM CST FRI DEC 09 2016

NOTE:  "FAIR" INDICATES FEW OR NO CLOUDS BELOW 12,000 FEET WITH NO
SIGNIFICANT WEATHER AND/OR OBSTRUCTIONS TO VISIBILITY.

KSZ001>006-013>018-027>032-041>047-091300-
NORTHWEST KANSAS

CITY           SKY/WX    TMP DP  RH WIND       PRES   REMARKS
GOODLAND       CLOUDY     8   4  83 SE10      30.25F WCI  -6
6HR MIN TEMP:   4; 6HR MAX TEMP:  10;

HAYS           CLOUDY    17  11  77 SE10      30.49  WCI   5
HILL CITY      CLOUDY    17   9  70 SE9       30.44F
6HR MIN TEMP:   1; 6HR MAX TEMP:  17;

RUSSELL        CLOUDY    16  11  80 SE9       30.50F
6HR MIN TEMP:   8; 6HR MAX TEMP:  16;

$$

KSZ061>065-074>080-084>089-091300-
SOUTHWEST KANSAS

CITY           SKY/WX    TMP DP  RH WIND       PRES   REMARKS
DODGE CITY     CLOUDY    20   6  55 SE14      30.42F WCI   7
6HR MIN TEMP:  18; 6HR MAX TEMP:  20;

ELKHART          N/A    N/A N/A N/A MISG        N/A
GARDEN CITY    CLOUDY    21   6  52 SE15      30.36F WCI   8
6HR MIN TEMP:  19; 6HR MAX TEMP:  21;

GREAT BEND     CLOUDY    18  12  77 SE13      30.51F WCI   5
LIBERAL        CLOUDY    25   7  46 SE12      30.37S WCI  14
PRATT          CLOUDY    17   8  69 SE8       30.52F
6HR MIN TEMP:  10; 6HR MAX TEMP:  17;

$$

KSZ066>073-081>083-090>101-091300-
SOUTHEAST KANSAS

CITY           SKY/WX    TMP DP  RH WIND       PRES   REMARKS
CHANUTE        CLOUDY    14  10  84 CALM      30.65F
6HR MIN TEMP:  12; 6HR MAX TEMP:  16;

COFFEYVILLE    CLOUDY    15  11  83 CALM      30.68F
6HR MIN TEMP:  14; 6HR MAX TEMP:  19;

HUTCHINSON     CLOUDY    17  11  77 SE6       30.57F
6HR MIN TEMP:   8; 6HR MAX TEMP:  17;

MEDICINE LODGE   N/A     19  11  70 SE5       30.56F
NEWTON         CLOUDY    16  11  80 E6        30.59F
PARSONS        CLOUDY    11   7  84 CALM      30.67F
6HR MIN TEMP:  10; 6HR MAX TEMP:  13;

WICHITA INTL   CLOUDY    17  10  74 E6        30.60F
6HR MIN TEMP:  12; 6HR MAX TEMP:  17;

WICHITA JABRA  CLOUDY    14  10  84 E3        30.60F
6HR MIN TEMP:  11; 6HR MAX TEMP:  17;

WICHITA MCCONL CLOUDY    17   8  70 E6        30.60F
WINFIELD       CLOUDY    14  10  84 CALM      30.64S
6HR MIN TEMP:  12; 6HR MAX TEMP:  19;

$$

KSZ007>012-019>026-033>040-048>060-102>105-091300-
NORTHEAST KANSAS

CITY           SKY/WX    TMP DP  RH WIND       PRES   REMARKS
CONCORDIA      CLOUDY    14  10  84 CALM      30.57F
6HR MIN TEMP:   8; 6HR MAX TEMP:  14;

EMPORIA        CLOUDY    12   9  87 CALM      30.62F
6HR MIN TEMP:  11; 6HR MAX TEMP:  14;

LAWRENCE       CLOUDY     7   5  91 CALM      30.66S
6HR MIN TEMP:   6; 6HR MAX TEMP:  10;

MANHATTAN      PTCLDY    13   9  84 CALM      30.62F
6HR MIN TEMP:   8; 6HR MAX TEMP:  13;

MARYSVILLE     CLOUDY     9   3  78 CALM      30.60F
OLATHE IND     CLEAR     13   7  77 CALM      30.64F
6HR MIN TEMP:  11; 6HR MAX TEMP:  16;

OLATHE EXE     CLEAR     12   7  80 CALM      30.63F
6HR MIN TEMP:  11; 6HR MAX TEMP:  16;

SALINA         CLOUDY    12   8  84 SE3       30.60F
6HR MIN TEMP:   9; 6HR MAX TEMP:  14;

TOPEKA BILLARD CLOUDY    12   7  80 CALM      30.65F
6HR MIN TEMP:  10; 6HR MAX TEMP:  15;

TOPEKA FORBES  CLOUDY    11   6  81 CALM      30.63F
6HR MIN TEMP:  10; 6HR MAX TEMP:  15;

$$



USA.gov is the U.S. government's official web portal to all federal, state and local government web resources and services.